Regional Weather Roundup
Issued by NWS

Home | Current Version | Previous Version | Text Only | Print | Product List | Glossary Off
Versions: 1 2 3 4 5 6 7 8 9 10 11 12 13 14 15 16 17 18 19 20 21 22 23 24 25 26 27 28 29 30 31 32 33 34 35 36 37 38 39 40 41 42 43 44 45 46 47 48 49 50

865
ASUS43 KOAX 201910
RWRNE

WEATHER ROUNDUP FOR NEBRASKA
NATIONAL WEATHER SERVICE OMAHA NE
100 PM CST MON NOV 20 2017

NOTES: SATELLITE DATA IS BEING USED TO AUGMENT CLOUD COVER ABOVE
       12000 FEET.
       "FAIR" INDICATES FEW OR NO CLOUDS BELOW 12,000 FEET WITH NO
       SIGNIFICANT WEATHER AND/OR OBSTRUCTIONS TO VISIBILITY.


NEZ001>004-019>022-054>056-202000-
NEBRASKA PANHANDLE

CITY           SKY/WX    TMP DP  RH WIND       PRES   REMARKS
SCOTTSBLUFF    CLOUDY    63   9  12 W25G41    29.70F
ALLIANCE       CLOUDY    61  13  15 NW25G31   29.68F
CHADRON          N/A     62  14  15 W28G40    29.66F
GORDON         FAIR      61  13  15 NW22G35   29.63F
KIMBALL        CLOUDY    63   8  11 W38G51    29.77S
SIDNEY         CLOUDY    63   5  10 W25G38    29.75S
$$

NEZ057>060-069>072-079>082-202000-
SOUTHWEST NEBRASKA

CITY           SKY/WX    TMP DP  RH WIND       PRES   REMARKS
NORTH PLATTE   CLOUDY    62  18  18 W15       29.65F
IMPERIAL       CLOUDY    70   2   7 W23G32    29.71F
LEXINGTON      CLOUDY    65  19  16 SW13      29.64F
MCCOOK         SUNNY     70  18  13 W15       29.69F
OGALLALA       CLOUDY    69  11  10 W22G33    29.67F
$$

NEZ005>010-023>029-035>040-094-202000-
NORTH CENTRAL NEBRASKA

CITY           SKY/WX    TMP DP  RH WIND       PRES   REMARKS
VALENTINE      CLOUDY    64  16  15 NW18G25   29.56F
AINSWORTH      CLOUDY    60  20  21 W15G22    29.57S
BROKEN BOW     CLOUDY    62  18  18 W16G26    29.60F
O`NEILL        CLOUDY    55  23  29 W12G21    29.55S
ORD            CLOUDY    62  19  19 W22       29.57F
THEDFORD       CLOUDY    63  16  16 NW23G36   29.62S
$$

NEZ041-046>049-061>064-073>077-083>087-202000-
SOUTH CENTRAL NEBRASKA

CITY           SKY/WX    TMP DP  RH WIND       PRES   REMARKS
GRAND ISLAND   CLOUDY    60  26  27 SW20      29.63F
AURORA         CLOUDY    57  27  31 SW15      29.63F
HASTINGS       CLOUDY    59  25  27 SW13      29.65F
HEBRON         CLOUDY    56  24  28 SW13G22   29.70F
HOLDREGE       SUNNY     62  25  23 SW15      29.67F
KEARNEY        CLOUDY    61  22  22 W13       29.65
YORK           CLOUDY    59  25  27 SW14G21   29.64F
$$

NEZ011>018-030>034-042>045-202000-
NORTHEAST NEBRASKA

CITY           SKY/WX    TMP DP  RH WIND       PRES   REMARKS
NORFOLK        CLOUDY    55  25  31 SW7       29.56F
ALBION         CLOUDY    60  24  25 SW9       29.57F
BLAIR          CLOUDY    56  29  35 S20       29.61F
COLUMBUS       CLOUDY    54  27  35 SW12      29.61F
FREMONT        CLOUDY    57  26  29 SW16      29.62S
TEKAMAH        MOSUNNY   57  26  30 S20       29.60F
WAYNE          CLOUDY    54  19  25 SW10      29.55F
$$

NEZ050>053-065>068-078-088>093-202000-
SOUTHEAST NEBRASKA

CITY           SKY/WX    TMP DP  RH WIND       PRES   REMARKS
LINCOLN        CLOUDY    58  24  27 SW20      29.65F
OMAHA EPPLEY   CLOUDY    56  26  31 S14       29.62F
BEATRICE       CLOUDY    59  27  29 SW23      29.68F
FALLS CITY     SUNNY     61  25  25 S24G32    29.71F
NEBRASKA CITY  MOSUNNY   60  29  30 SW23G32   29.67F
PLATTSMOUTH    CLOUDY    58  28  31 S18G24    29.65F
$$

NEZ044-045-051>053-067-202000-
OMAHA AREA

CITY           SKY/WX    TMP DP  RH WIND       PRES   REMARKS
OMAHA EPPLEY   CLOUDY    56  26  31 S14       29.62F
BLAIR          CLOUDY    56  29  35 S20       29.61F
FREMONT        CLOUDY    57  26  29 SW16      29.62S
MILLARD        CLOUDY    57  28  33 S9G17     29.64S
OFFUTT AFB     CLOUDY    57  25  29 SW12G18   29.64F
PLATTSMOUTH    CLOUDY    58  28  31 S18G24    29.65F
WAHOO          FAIR      58  25  28 SW16      29.63F
$$




USA.gov is the U.S. government's official web portal to all federal, state and local government web resources and services.